Stündliche Wetter Holoholnya

Heute, 15 Juni, Dienstag

Zeit Temperatur Niederschläge Wind Luftdruck Luftfeuchtigkeit
00:00 +18°C° 0 mm 1 m/S 747 mmHg 86%
01:00 +16°C° 0 mm 0 m/S 747 mmHg 87%
02:00 +16°C° 0 mm 0 m/S 746 mmHg 87%
03:00 +18°C° 0 mm 1 m/S 746 mmHg 87%
04:00 +19°C° 0 mm 1 m/S 747 mmHg 87%
05:00 +19°C° 0 mm 1 m/S 747 mmHg 87%
06:00 +21°C° 0.1 mm 1 m/S 747 mmHg 84%
07:00 +22°C° 0.1 mm 1 m/S 747 mmHg 81%
08:00 +23°C° 0.1 mm 1 m/S 747 mmHg 78%
09:00 +24°C° 0.6 mm 1 m/S 746 mmHg 73%
10:00 +25°C° 0.6 mm 1 m/S 746 mmHg 69%
11:00 +26°C° 0.6 mm 1 m/S 746 mmHg 64%
12:00 +26°C° 0 mm 1 m/S 746 mmHg 62%
13:00 +27°C° 0 mm 1 m/S 745 mmHg 61%
14:00 +27°C° 0 mm 1 m/S 745 mmHg 59%
15:00 +27°C° 0.4 mm 1 m/S 745 mmHg 64%
16:00 +26°C° 0.4 mm 1 m/S 744 mmHg 68%
17:00 +26°C° 0.4 mm 2 m/S 744 mmHg 72%
18:00 +24°C° 0.2 mm 1 m/S 744 mmHg 76%
19:00 +23°C° 0.2 mm 1 m/S 744 mmHg 79%
20:00 +21°C° 0.2 mm 1 m/S 744 mmHg 82%
21:00 +20°C° 0 mm 1 m/S 744 mmHg 84%
22:00 +19°C° 0 mm 1 m/S 744 mmHg 86%
23:00 +18°C° 0 mm 2 m/S 744 mmHg 88%

Morgen, 16 Juni, Mittwoch

Zeit Temperatur Niederschläge Wind Luftdruck Luftfeuchtigkeit
00:00 +17°C° 0 mm 2 m/S 744 mmHg 90%
01:00 +17°C° 0 mm 2 m/S 744 mmHg 91%
02:00 +16°C° 0 mm 2 m/S 744 mmHg 93%
03:00 +17°C° 0 mm 2 m/S 744 mmHg 93%
04:00 +17°C° 0 mm 2 m/S 744 mmHg 93%
05:00 +17°C° 0 mm 2 m/S 744 mmHg 93%
06:00 +19°C° 0 mm 3 m/S 745 mmHg 88%
07:00 +20°C° 0 mm 3 m/S 745 mmHg 83%
08:00 +21°C° 0 mm 3 m/S 745 mmHg 78%
09:00 +22°C° 0 mm 4 m/S 745 mmHg 74%
10:00 +23°C° 0 mm 4 m/S 746 mmHg 70%
11:00 +25°C° 0 mm 5 m/S 746 mmHg 66%
12:00 +25°C° 0 mm 5 m/S 746 mmHg 65%
13:00 +25°C° 0 mm 4 m/S 746 mmHg 63%
14:00 +25°C° 0 mm 4 m/S 746 mmHg 62%
15:00 +25°C° 0 mm 4 m/S 746 mmHg 66%
16:00 +25°C° 0 mm 4 m/S 747 mmHg 69%
17:00 +23°C° 0 mm 4 m/S 747 mmHg 73%
18:00 +21°C° 0 mm 4 m/S 747 mmHg 76%
19:00 +20°C° 0 mm 3 m/S 748 mmHg 78%
20:00 +18°C° 0 mm 3 m/S 748 mmHg 81%
21:00 +17°C° 0 mm 3 m/S 749 mmHg 81%
22:00 +16°C° 0 mm 3 m/S 749 mmHg 80%
23:00 +14°C° 0 mm 3 m/S 749 mmHg 80%

übermorgen, 17 Juni, Donnerstag

Zeit Temperatur Niederschläge Wind Luftdruck Luftfeuchtigkeit
00:00 +13°C° 0 mm 3 m/S 750 mmHg 79%
01:00 +13°C° 0 mm 3 m/S 750 mmHg 78%
02:00 +12°C° 0 mm 3 m/S 751 mmHg 77%
03:00 +12°C° 0 mm 3 m/S 751 mmHg 78%
04:00 +14°C° 0 mm 2 m/S 751 mmHg 80%
05:00 +14°C° 0 mm 2 m/S 752 mmHg 81%
06:00 +14°C° 0 mm 3 m/S 752 mmHg 76%
07:00 +17°C° 0 mm 3 m/S 752 mmHg 70%
08:00 +19°C° 0 mm 4 m/S 753 mmHg 65%
09:00 +20°C° 0 mm 4 m/S 753 mmHg 62%
10:00 +21°C° 0 mm 4 m/S 753 mmHg 59%
11:00 +21°C° 0 mm 4 m/S 754 mmHg 55%
12:00 +22°C° 0 mm 4 m/S 754 mmHg 55%
13:00 +22°C° 0 mm 4 m/S 754 mmHg 55%
14:00 +22°C° 0 mm 4 m/S 754 mmHg 55%
15:00 +22°C° 0 mm 3 m/S 754 mmHg 59%
16:00 +22°C° 0 mm 3 m/S 754 mmHg 64%
17:00 +21°C° 0 mm 3 m/S 754 mmHg 68%
18:00 +20°C° 0 mm 2 m/S 754 mmHg 72%
19:00 +18°C° 0 mm 2 m/S 754 mmHg 76%
20:00 +16°C° 0 mm 1 m/S 755 mmHg 80%
21:00 +16°C° 0 mm 1 m/S 755 mmHg 78%
22:00 +15°C° 0 mm 1 m/S 755 mmHg 77%
23:00 +15°C° 0 mm 1 m/S 755 mmHg 76%

18 Juni, Freitag

Zeit Temperatur Niederschläge Wind Luftdruck Luftfeuchtigkeit
00:00 +14°C° 0 mm 1 m/S 755 mmHg 76%
01:00 +14°C° 0 mm 1 m/S 755 mmHg 76%
02:00 +14°C° 0 mm 1 m/S 756 mmHg 77%
03:00 +14°C° 0 mm 1 m/S 756 mmHg 77%
04:00 +15°C° 0 mm 1 m/S 756 mmHg 78%
05:00 +16°C° 0 mm 1 m/S 756 mmHg 79%
06:00 +18°C° 0 mm 1 m/S 756 mmHg 75%
07:00 +20°C° 0 mm 1 m/S 757 mmHg 71%
08:00 +21°C° 0 mm 1 m/S 757 mmHg 67%
09:00 +22°C° 0 mm 1 m/S 757 mmHg 64%
10:00 +23°C° 0 mm 1 m/S 757 mmHg 61%
11:00 +24°C° 0 mm 1 m/S 757 mmHg 58%
12:00 +25°C° 0 mm 1 m/S 757 mmHg 57%
13:00 +25°C° 0 mm 1 m/S 757 mmHg 56%
14:00 +26°C° 0 mm 1 m/S 757 mmHg 55%
15:00 +25°C° 0 mm 1 m/S 756 mmHg 57%
16:00 +25°C° 0 mm 1 m/S 756 mmHg 60%
17:00 +25°C° 0 mm 1 m/S 756 mmHg 62%
18:00 +23°C° 0 mm 1 m/S 756 mmHg 67%
19:00 +22°C° 0 mm 1 m/S 756 mmHg 73%
20:00 +20°C° 0 mm 1 m/S 756 mmHg 79%
21:00 +19°C° 0 mm 1 m/S 756 mmHg 81%
22:00 +18°C° 0 mm 1 m/S 756 mmHg 84%
23:00 +17°C° 0 mm 2 m/S 757 mmHg 86%

19 Juni, Samstag

Zeit Temperatur Niederschläge Wind Luftdruck Luftfeuchtigkeit
00:00 +16°C° 0 mm 2 m/S 757 mmHg 87%
01:00 +16°C° 0 mm 2 m/S 757 mmHg 88%
02:00 +15°C° 0 mm 1 m/S 757 mmHg 89%
03:00 +16°C° 0 mm 1 m/S 757 mmHg 88%
04:00 +18°C° 0 mm 1 m/S 757 mmHg 87%
05:00 +18°C° 0 mm 1 m/S 757 mmHg 86%
06:00 +20°C° 0 mm 1 m/S 757 mmHg 82%
07:00 +21°C° 0 mm 1 m/S 757 mmHg 77%
08:00 +22°C° 0 mm 1 m/S 758 mmHg 72%
09:00 +23°C° 0 mm 1 m/S 757 mmHg 69%
10:00 +24°C° 0 mm 2 m/S 757 mmHg 65%
11:00 +25°C° 0 mm 2 m/S 757 mmHg 62%
12:00 +25°C° 0 mm 2 m/S 757 mmHg 61%
13:00 +26°C° 0 mm 2 m/S 756 mmHg 61%
14:00 +26°C° 0 mm 2 m/S 756 mmHg 60%
15:00 +26°C° 0 mm 2 m/S 756 mmHg 63%
16:00 +26°C° 0 mm 2 m/S 756 mmHg 66%
17:00 +26°C° 0 mm 2 m/S 756 mmHg 70%
18:00 +24°C° 0 mm 2 m/S 755 mmHg 75%
19:00 +21°C° 0 mm 2 m/S 755 mmHg 81%
20:00 +20°C° 0 mm 2 m/S 755 mmHg 86%
21:00 +20°C° 0 mm 1 m/S 755 mmHg 87%
22:00 +19°C° 0 mm 1 m/S 756 mmHg 88%
23:00 +19°C° 0 mm 1 m/S 756 mmHg 89%

20 Juni, Sonntag

Zeit Temperatur Niederschläge Wind Luftdruck Luftfeuchtigkeit
00:00 +18°C° 0 mm 1 m/S 756 mmHg 89%
01:00 +18°C° 0 mm 1 m/S 756 mmHg 89%
02:00 +16°C° 0 mm 1 m/S 756 mmHg 89%
03:00 +18°C° 0 mm 1 m/S 756 mmHg 87%
04:00 +18°C° 0 mm 1 m/S 756 mmHg 86%
05:00 +19°C° 0 mm 1 m/S 756 mmHg 85%
06:00 +20°C° 0 mm 1 m/S 756 mmHg 81%
07:00 +22°C° 0 mm 1 m/S 756 mmHg 76%
08:00 +23°C° 0 mm 1 m/S 756 mmHg 72%
09:00 +24°C° 0 mm 1 m/S 755 mmHg 69%
10:00 +25°C° 0 mm 1 m/S 755 mmHg 66%
11:00 +26°C° 0 mm 2 m/S 755 mmHg 62%
12:00 +26°C° 0 mm 2 m/S 755 mmHg 61%
13:00 +27°C° 0 mm 2 m/S 755 mmHg 60%
14:00 +27°C° 0 mm 2 m/S 754 mmHg 59%
15:00 +27°C° 0 mm 2 m/S 754 mmHg 62%
16:00 +27°C° 0 mm 2 m/S 754 mmHg 65%
17:00 +27°C° 0 mm 1 m/S 754 mmHg 68%
18:00 +25°C° 0 mm 1 m/S 754 mmHg 73%
19:00 +23°C° 0 mm 1 m/S 754 mmHg 78%
20:00 +22°C° 0 mm 1 m/S 754 mmHg 83%
21:00 +21°C° 0 mm 1 m/S 754 mmHg 85%
22:00 +20°C° 0 mm 1 m/S 753 mmHg 86%
23:00 +19°C° 0 mm 1 m/S 753 mmHg 87%
Mehr zeigen

Wir brauchen deine Erlaubnis

Meteoprog und unser Service Anbieter werden persönliche Daten aufbewahren, so wie Cookies, Geräte Bezeichnung oder ähnliche Technologien von deinem Gerät und Prozess, so wie Persönliche Daten Inhalte und Werbungen, genauso wie social Media und den Verkehr zu analysieren.

  • Aufbewahrung und/oder Zugang zu deiner Geräte Informationen.

    Cookies, Geräte Bezeichnung oder andere Informationen, können aufbewahrt oder Zugang zu deinem Gerät erhalten, für den Grund, der oben angegeben wird.

  • Personalisierte Werbung und Inhalte, Messungen, Einblick in das Publikum und Produkt Entwicklung.

    Werbungen und Inhalte können personalisiert werden, basierend auf ein Profil. Mehr Daten können besser personalisierte Werbungen und Inhalte hinzufügen. Werbung und Inhalte können gezeigt und gemessen werden. Einblicke über das Publikum, welche die Werbung gesehen haben und den Inhalt, können abgeleitet werden. So wie Daten können genutzt werden, um es zu verbessern oder die Benutzer Erfahrung zu verbessern das System und die Software.

Wenn du “Ich stimme zu” klickst, erlaubst du uns, die Cookies zu benutzen die Geräte Bezeichnung, den Web oder ähnliche Technologien zu benutzen. Deine Settings, können in deinem Gerät bei deinem Browser geändert werden.

Für den bestimmten Zweck, berechtigten Interessen beruhen darauf, mehr als auf den Inhalt. Du kannst mehr darüber in unseren Privaten und Cookie Politik lesen.